����,���ϕ���(m/s),���ϕ���,�ő�u�ԕ���(m/s),�ő啗��������,�C��(��),���x(%),10���Ԉړ��ώZ�J��(mm),1���Ԉړ��ώZ�J��(mm),���J��(mm),�݌v�J��(mm),����(���ώZ)(MJ/m2),����(���ώZ)(min),���n�C��(hPa),�C�ʋC��(hPa)
2020-02-17T00:00:00+09:00,5.6,��쐼,9.7,��쐼,10,63.6,0,0,9.5,9.5,2.12,0,992.6,1006.6
2020-02-17T00:01:00+09:00,5.7,��쐼,9.7,��쐼,9.9,64.1,0,0,0,9.5,0,0,992.6,1006.6
2020-02-17T00:02:00+09:00,5.7,��쐼,9.7,��쐼,9.8,65,0,0,0,9.5,0,0,992.7,1006.7
2020-02-17T00:03:00+09:00,5.7,��쐼,8.9,��쐼,9.7,65.4,0,0,0,9.5,0,0,992.8,1006.8
2020-02-17T00:04:00+09:00,5.6,��쐼,8.9,��쐼,9.7,65.6,0,0,0,9.5,0,0,992.9,1006.9
2020-02-17T00:05:00+09:00,5.7,��쐼,9.2,��,9.6,65.9,0,0,0,9.5,0,0,992.9,1006.9
2020-02-17T00:06:00+09:00,5.7,��쐼,9.2,��,9.6,66.3,0,0,0,9.5,0,0,993,1007
2020-02-17T00:07:00+09:00,5.8,��쐼,9.2,��,9.5,66.5,0,0,0,9.5,0,0,993,1007
2020-02-17T00:08:00+09:00,6,��쐼,9.2,��,9.5,66.5,0,0,0,9.5,0,0,993.2,1007.2
2020-02-17T00:09:00+09:00,6.2,��쐼,10.9,��쐼,9.5,66,0,0,0,9.5,0,0,993.2,1007.2
2020-02-17T00:10:00+09:00,6.5,��쐼,10.9,��쐼,9.5,65.6,0,0,0,9.5,0,0,993.2,1007.2
2020-02-17T00:11:00+09:00,6.6,��쐼,10.9,��쐼,9.4,65.5,0,0,0,9.5,0,0,993.2,1007.2
2020-02-17T00:12:00+09:00,6.9,��쐼,11.1,��,9.4,65.5,0,0,0,9.5,0,0,993.1,1007.1
2020-02-17T00:13:00+09:00,7,��,11.1,��,9.4,65.1,0,0,0,9.5,0,0,993.2,1007.2
2020-02-17T00:14:00+09:00,6.9,��,11.1,��,9.3,65.3,0,0,0,9.5,0,0,993.1,1007.1
2020-02-17T00:15:00+09:00,7,��,11.1,��,9.3,65.7,0,0,0,9.5,0,0,992.9,1006.9
2020-02-17T00:16:00+09:00,6.8,��,11.1,��,9.2,65.7,0,0,0,9.5,0,0,992.8,1006.8
2020-02-17T00:17:00+09:00,6.8,��,11.1,��,9.2,65.7,0,0,0,9.5,0,0,992.8,1006.8
2020-02-17T00:18:00+09:00,6.8,��,11.1,��,9.2,65.7,0,0,0,9.5,0,0,992.8,1006.8
2020-02-17T00:19:00+09:00,6.6,��,11.1,��,9.2,66,0,0,0,9.5,0,0,992.9,1006.9
2020-02-17T00:20:00+09:00,6.4,��,11.1,��,9.1,65.9,0,0,0,9.5,0,0,992.9,1006.9
2020-02-17T00:21:00+09:00,6.3,��,11.1,��,9.1,66.1,0,0,0,9.5,0,0,993.1,1007.1
2020-02-17T00:22:00+09:00,6.3,��,9.9,��쐼,9.1,65.9,0,0,0,9.5,0,0,993.3,1007.3
2020-02-17T00:23:00+09:00,6.1,��,9.6,��,9,66.4,0,0,0,9.5,0,0,993.6,1007.6
2020-02-17T00:24:00+09:00,6.2,��,9.6,��,9,66.6,0,0,0,9.5,0,0,993.6,1007.6
2020-02-17T00:25:00+09:00,6.2,��,9.6,��,9,66.3,0,0,0,9.5,0,0,993.6,1007.6
2020-02-17T00:26:00+09:00,6.4,��,9.6,��,9,65.9,0,0,0,9.5,0,0,993.5,1007.5
2020-02-17T00:27:00+09:00,6.4,��,9.6,��,9,65.6,0,0,0,9.5,0,0,993.3,1007.3
2020-02-17T00:28:00+09:00,6.6,��,10.4,��쐼,9,65.3,0,0,0,9.5,0,0,993.1,1007.1
2020-02-17T00:29:00+09:00,6.6,��,10.4,��쐼,9,64.4,0,0,0,9.5,0,0,992.9,1006.9
2020-02-17T00:30:00+09:00,6.6,��,10.4,��쐼,9,64.4,0,0,0,9.5,0,0,992.9,1006.9
2020-02-17T00:31:00+09:00,6.6,��,10.4,��쐼,8.9,64.9,0,0,0,9.5,0,0,992.8,1006.8
2020-02-17T00:32:00+09:00,6.5,��,10.4,��쐼,8.9,64.5,0,0,0,9.5,0,0,992.8,1006.8
2020-02-17T00:33:00+09:00,6.5,��쐼,10.4,��쐼,8.9,63.8,0,0,0,9.5,0,0,993,1007
2020-02-17T00:34:00+09:00,6.5,��쐼,10.4,��쐼,8.9,64,0,0,0,9.5,0,0,993,1007
2020-02-17T00:35:00+09:00,6.4,��쐼,10.4,��쐼,8.9,63.6,0,0,0,9.5,0,0,993.1,1007.1
2020-02-17T00:36:00+09:00,6.4,��쐼,10.4,��쐼,8.8,63.9,0,0,0,9.5,0,0,993.2,1007.2
2020-02-17T00:37:00+09:00,6.2,��쐼,10.4,��쐼,8.8,63.6,0,0,0,9.5,0,0,993.3,1007.3
2020-02-17T00:38:00+09:00,6.1,��쐼,9.4,��쐼,8.8,63.8,0,0,0,9.5,0,0,993.4,1007.4
2020-02-17T00:39:00+09:00,6,��쐼,9.1,��쐼,8.7,64,0,0,0,9.5,0,0,993.3,1007.3
2020-02-17T00:40:00+09:00,6.2,��쐼,10,��쐼,8.8,63.4,0,0,0,9.5,0,0,993.4,1007.4
2020-02-17T00:41:00+09:00,6.1,��쐼,10,��쐼,8.8,63.1,0,0,0,9.5,0,0,993.6,1007.6
2020-02-17T00:42:00+09:00,6.1,��쐼,10,��쐼,8.8,63.2,0,0,0,9.5,0,0,993.7,1007.7
2020-02-17T00:43:00+09:00,6.1,��쐼,10,��쐼,8.9,62.5,0,0,0,9.5,0,0,993.7,1007.7
2020-02-17T00:44:00+09:00,6.2,��쐼,10,��쐼,8.8,62.3,0,0,0,9.5,0,0,993.6,1007.6
2020-02-17T00:45:00+09:00,6.2,��쐼,10,��쐼,8.8,62.2,0,0,0,9.5,0,0,993.7,1007.7
2020-02-17T00:46:00+09:00,6.2,��쐼,10,��쐼,8.8,62.3,0,0,0,9.5,0,0,993.7,1007.7
2020-02-17T00:47:00+09:00,6.1,��쐼,10,��쐼,8.8,62.7,0,0,0,9.5,0,0,993.6,1007.6
2020-02-17T00:48:00+09:00,6,��쐼,10,��쐼,8.7,62.3,0,0,0,9.5,0,0,993.7,1007.7
2020-02-17T00:49:00+09:00,6,��쐼,10,��쐼,8.8,61.9,0,0,0,9.5,0,0,993.8,1007.8
2020-02-17T00:50:00+09:00,5.9,��쐼,9.9,��쐼,8.9,60.4,0,0,0,9.5,0,0,993.9,1007.9
2020-02-17T00:51:00+09:00,5.9,��쐼,9.9,��쐼,8.9,60.2,0,0,0,9.5,0,0,993.9,1007.9
2020-02-17T00:52:00+09:00,5.8,��쐼,9.9,��쐼,8.9,59.7,0,0,0,9.5,0,0,993.8,1007.8
2020-02-17T00:53:00+09:00,5.7,��쐼,9.9,��쐼,8.8,59.8,0,0,0,9.5,0,0,993.7,1007.7
2020-02-17T00:54:00+09:00,5.7,��쐼,9.9,��쐼,8.8,59.8,0,0,0,9.5,0,0,993.6,1007.6
2020-02-17T00:55:00+09:00,5.6,��쐼,9.9,��쐼,8.8,58.6,0,0,0,9.5,0,0,993.6,1007.6
2020-02-17T00:56:00+09:00,5.5,��쐼,9.9,��쐼,8.8,58.6,0,0,0,9.5,0,0,993.6,1007.6
2020-02-17T00:57:00+09:00,5.7,��쐼,9.9,��쐼,8.8,58.1,0,0,0,9.5,0,0,993.6,1007.6
2020-02-17T00:58:00+09:00,5.8,��쐼,10.3,��,8.8,57.8,0,0,0,9.5,0,0,993.5,1007.5
2020-02-17T00:59:00+09:00,5.8,��쐼,10.3,��,8.8,57.1,0,0,0,9.5,0,0,993.5,1007.5
2020-02-17T01:00:00+09:00,5.8,��쐼,10.3,��,8.8,57.4,0,0,0,9.5,0,0,993.4,1007.4
2020-02-17T01:01:00+09:00,5.9,��쐼,10.3,��,8.8,57.1,0,0,0,9.5,0,0,993.5,1007.5
2020-02-17T01:02:00+09:00,5.9,��쐼,10.3,��,8.8,57.2,0,0,0,9.5,0,0,993.5,1007.5
2020-02-17T01:03:00+09:00,5.9,��쐼,10.3,��,8.7,57.8,0,0,0,9.5,0,0,993.5,1007.5
2020-02-17T01:04:00+09:00,5.7,��쐼,10.3,��,8.6,58.4,0,0,0,9.5,0,0,993.5,1007.5
2020-02-17T01:05:00+09:00,5.6,��쐼,10.3,��,8.6,59,0,0,0,9.5,0,0,993.5,1007.5
2020-02-17T01:06:00+09:00,5.8,��쐼,10.3,��,8.6,58.5,0,0,0,9.5,0,0,993.7,1007.7
2020-02-17T01:07:00+09:00,5.8,��쐼,10.3,��,8.6,57.9,0,0,0,9.5,0,0,993.8,1007.8
2020-02-17T01:08:00+09:00,5.7,��쐼,9.6,��,8.5,58.4,0,0,0,9.5,0,0,993.7,1007.8
2020-02-17T01:09:00+09:00,5.7,��쐼,9.5,��쐼,8.5,58.9,0,0,0,9.5,0,0,993.7,1007.8
2020-02-17T01:10:00+09:00,5.7,��쐼,9.5,��쐼,8.6,58.5,0,0,0,9.5,0,0,993.7,1007.7
2020-02-17T01:11:00+09:00,5.5,��쐼,9.5,��쐼,8.5,57.8,0,0,0,9.5,0,0,993.7,1007.8
2020-02-17T01:12:00+09:00,5.5,��,9.5,��쐼,8.5,58.3,0,0,0,9.5,0,0,993.6,1007.6
2020-02-17T01:13:00+09:00,5.7,��쐼,9.5,��쐼,8.5,58.2,0,0,0,9.5,0,0,993.7,1007.8
2020-02-17T01:14:00+09:00,5.8,��쐼,9.5,��쐼,8.5,57.5,0,0,0,9.5,0,0,993.7,1007.8
2020-02-17T01:15:00+09:00,6,��쐼,9.5,��쐼,8.5,57.8,0,0,0,9.5,0,0,993.8,1007.9
2020-02-17T01:16:00+09:00,5.9,��쐼,9.4,��쐼,8.5,56.8,0,0,0,9.5,0,0,994,1008.1
2020-02-17T01:17:00+09:00,6.1,��쐼,9.4,��쐼,8.4,57.4,0,0,0,9.5,0,0,994.1,1008.2
2020-02-17T01:18:00+09:00,6.1,��쐼,9.4,��쐼,8.4,58,0,0,0,9.5,0,0,994.2,1008.3
2020-02-17T01:19:00+09:00,6.2,��쐼,9.4,��쐼,8.4,58,0,0,0,9.5,0,0,994.1,1008.2
2020-02-17T01:20:00+09:00,6.2,��쐼,10.3,��쐼,8.4,57.4,0,0,0,9.5,0,0,994.1,1008.2
2020-02-17T01:21:00+09:00,6.3,��쐼,10.3,��쐼,8.4,57.4,0,0,0,9.5,0,0,994.2,1008.3
2020-02-17T01:22:00+09:00,6.2,��쐼,10.3,��쐼,8.4,57.5,0,0,0,9.5,0,0,994.2,1008.3
2020-02-17T01:23:00+09:00,6.2,��쐼,10.3,��쐼,8.4,57.3,0,0,0,9.5,0,0,994.1,1008.2
2020-02-17T01:24:00+09:00,6.3,��쐼,10.3,��쐼,8.3,57.4,0,0,0,9.5,0,0,994.3,1008.4
2020-02-17T01:25:00+09:00,6,��쐼,10.3,��쐼,8.3,57.5,0,0,0,9.5,0,0,994.3,1008.4
2020-02-17T01:26:00+09:00,5.9,��쐼,10.3,��쐼,8.3,57.1,0,0,0,9.5,0,0,994.3,1008.4
2020-02-17T01:27:00+09:00,6,��쐼,10.3,��쐼,8.3,57,0,0,0,9.5,0,0,994.3,1008.4
2020-02-17T01:28:00+09:00,6,��쐼,10.3,��쐼,8.4,56.7,0,0,0,9.5,0,0,994.4,1008.5
2020-02-17T01:29:00+09:00,5.6,��쐼,10.3,��쐼,8.4,56.5,0,0,0,9.5,0,0,994.6,1008.7
2020-02-17T01:30:00+09:00,5.1,��쐼,10.1,��쐼,8.4,56.3,0,0,0,9.5,0,0,994.6,1008.7
2020-02-17T01:31:00+09:00,4.8,��쐼,10.1,��쐼,8.4,56.7,0,0,0,9.5,0,0,994.6,1008.7
2020-02-17T01:32:00+09:00,4.5,��쐼,10.1,��쐼,8.4,57.5,0,0,0,9.5,0,0,994.6,1008.7
2020-02-17T01:33:00+09:00,4.3,��쐼,10.1,��쐼,8.4,56.5,0,0,0,9.5,0,0,994.6,1008.7
2020-02-17T01:34:00+09:00,4.2,��쐼,10.1,��쐼,8.3,56.1,0,0,0,9.5,0,0,994.6,1008.7
2020-02-17T01:35:00+09:00,4.2,��쐼,10.1,��쐼,8.3,56.4,0,0,0,9.5,0,0,994.6,1008.7
2020-02-17T01:36:00+09:00,4.1,�쐼,10.1,��쐼,8.3,56.7,0,0,0,9.5,0,0,994.7,1008.8
2020-02-17T01:37:00+09:00,3.8,�쐼,8.5,��,8.3,55.9,0,0,0,9.5,0,0,994.6,1008.7
2020-02-17T01:38:00+09:00,3.8,�쐼,8.5,��,8.3,56,0,0,0,9.5,0,0,994.4,1008.5
2020-02-17T01:39:00+09:00,3.8,�쐼,8.1,��,8.2,56.2,0,0,0,9.5,0,0,994.3,1008.4
2020-02-17T01:40:00+09:00,3.9,�쐼,8.1,��,8.2,56.6,0,0,0,9.5,0,0,994.3,1008.4
2020-02-17T01:41:00+09:00,4.2,�쐼,8.1,��,8.3,55.4,0,0,0,9.5,0,0,994.3,1008.4
2020-02-17T01:42:00+09:00,4.5,��쐼,8.1,��,8.2,55.3,0,0,0,9.5,0,0,994.4,1008.5
2020-02-17T01:43:00+09:00,4.6,��쐼,8.1,��,8.3,55.2,0,0,0,9.5,0,0,994.4,1008.5
2020-02-17T01:44:00+09:00,4.4,��쐼,7.1,��,8.3,55.2,0,0,0,9.5,0,0,994.6,1008.7
2020-02-17T01:45:00+09:00,4,�쐼,7.1,��,8.2,55.7,0,0,0,9.5,0,0,994.6,1008.7
2020-02-17T01:46:00+09:00,3.7,��쐼,7,��쐼,8.2,56,0,0,0,9.5,0,0,994.6,1008.7
2020-02-17T01:47:00+09:00,3.7,��쐼,7,��쐼,8.2,55.6,0,0,0,9.5,0,0,994.4,1008.5
2020-02-17T01:48:00+09:00,3.6,��쐼,7.6,��쐼,8.2,54.6,0,0,0,9.5,0,0,994.3,1008.4
2020-02-17T01:49:00+09:00,3.7,��쐼,7.8,��쐼,8.2,54.4,0,0,0,9.5,0,0,994.3,1008.4
2020-02-17T01:50:00+09:00,3.7,��쐼,7.8,��쐼,8.2,54.5,0,0,0,9.5,0,0,994.2,1008.3
2020-02-17T01:51:00+09:00,3.4,��쐼,7.8,��쐼,8.2,54.5,0,0,0,9.5,0,0,994.2,1008.3
2020-02-17T01:52:00+09:00,3.1,��쐼,7.8,��쐼,8.2,54.7,0,0,0,9.5,0,0,994.2,1008.3
2020-02-17T01:53:00+09:00,2.8,�쐼,7.8,��쐼,8.1,55,0,0,0,9.5,0,0,994.2,1008.3
2020-02-17T01:54:00+09:00,2.8,�쐼,7.8,��쐼,8.1,54.6,0,0,0,9.5,0,0,994.1,1008.2
2020-02-17T01:55:00+09:00,3.1,�쐼,7.8,��쐼,8,55.1,0,0,0,9.5,0,0,994.2,1008.3
2020-02-17T01:56:00+09:00,3.2,�쐼,7.8,��쐼,8,55.2,0,0,0,9.5,0,0,994.3,1008.4
2020-02-17T01:57:00+09:00,3.1,�쐼,7.8,��쐼,8,55.3,0,0,0,9.5,0,0,994.3,1008.4
2020-02-17T01:58:00+09:00,2.8,���쐼,7.8,��쐼,8.1,55.5,0,0,0,9.5,0,0,994.2,1008.3
2020-02-17T01:59:00+09:00,2.4,���쐼,7.4,�쐼,8.1,55.1,0,0,0,9.5,0,0,994.2,1008.3
2020-02-17T02:00:00+09:00,2.3,���쐼,6.6,��,8.1,55.3,0,0,0,9.5,0,0,994.3,1008.4
2020-02-17T02:01:00+09:00,2.5,���쐼,6.6,��,8,55,0,0,0,9.5,0,0,994.3,1008.4
2020-02-17T02:02:00+09:00,2.5,�쐼,6.6,��,8,55,0,0,0,9.5,0,0,994.2,1008.3
2020-02-17T02:03:00+09:00,2.7,�쐼,6.6,��,8,54.8,0,0,0,9.5,0,0,994.2,1008.3
2020-02-17T02:04:00+09:00,2.5,�쐼,6.6,��,8.1,55.1,0,0,0,9.5,0,0,994.2,1008.3
2020-02-17T02:05:00+09:00,2.5,�쐼,6.3,��쐼,8.1,54.9,0,0,0,9.5,0,0,994.3,1008.4
2020-02-17T02:06:00+09:00,2.4,�쐼,6.3,��쐼,8,54.9,0,0,0,9.5,0,0,994.4,1008.5
2020-02-17T02:07:00+09:00,2.5,�쐼,6.6,���k��,8,55.2,0,0,0,9.5,0,0,994.4,1008.5
2020-02-17T02:08:00+09:00,2.6,�쐼,6.6,���k��,8,54.8,0,0,0,9.5,0,0,994.4,1008.5
2020-02-17T02:09:00+09:00,2.6,�쐼,6.6,���k��,8,55.1,0,0,0,9.5,0,0,994.4,1008.5
2020-02-17T02:10:00+09:00,2.6,�쐼,6.6,���k��,8,55.2,0,0,0,9.5,0,0,994.4,1008.5
2020-02-17T02:11:00+09:00,2.4,���쐼,6.6,���k��,8,55.4,0,0,0,9.5,0,0,994.4,1008.5
2020-02-17T02:12:00+09:00,2.5,���쐼,6.6,���k��,7.9,55.8,0,0,0,9.5,0,0,994.4,1008.5
2020-02-17T02:13:00+09:00,2.4,���쐼,6.6,���k��,7.9,55.5,0,0,0,9.5,0,0,994.4,1008.5
2020-02-17T02:14:00+09:00,2.5,�쐼,6.6,���k��,8,54.7,0,0,0,9.5,0,0,994.4,1008.5
2020-02-17T02:15:00+09:00,2.4,�쐼,6.6,���k��,8,55.2,0,0,0,9.5,0,0,994.5,1008.6
2020-02-17T02:16:00+09:00,2.5,�쐼,6.6,���k��,8,55.2,0,0,0,9.5,0,0,994.5,1008.6
2020-02-17T02:17:00+09:00,2.4,�쐼,4.9,��쐼,8,54.6,0,0,0,9.5,0,0,994.5,1008.6
2020-02-17T02:18:00+09:00,2.5,��쐼,5.9,��쐼,8,54.6,0,0,0,9.5,0,0,994.4,1008.5
2020-02-17T02:19:00+09:00,2.6,��쐼,5.9,��쐼,8,54.6,0,0,0,9.5,0,0,994.4,1008.5
2020-02-17T02:20:00+09:00,2.7,��쐼,5.9,��쐼,7.9,54.7,0,0,0,9.5,0,0,994.4,1008.5
2020-02-17T02:21:00+09:00,2.7,��쐼,5.9,��쐼,7.9,55.4,0,0,0,9.5,0,0,994.4,1008.5
2020-02-17T02:22:00+09:00,2.6,��쐼,5.9,��쐼,7.9,55.4,0,0,0,9.5,0,0,994.4,1008.5
2020-02-17T02:23:00+09:00,2.4,��쐼,5.9,��쐼,7.9,55.2,0,0,0,9.5,0,0,994.4,1008.5
2020-02-17T02:24:00+09:00,2.2,��쐼,5.9,��쐼,7.9,55.7,0,0,0,9.5,0,0,994.5,1008.6
2020-02-17T02:25:00+09:00,2.2,��쐼,5.9,��쐼,7.8,56.2,0,0,0,9.5,0,0,994.5,1008.6
2020-02-17T02:26:00+09:00,2.3,��쐼,6.5,��,7.9,55.4,0,0,0,9.5,0,0,994.5,1008.6
2020-02-17T02:27:00+09:00,2.4,��쐼,6.5,��,7.9,55.3,0,0,0,9.5,0,0,994.5,1008.6
2020-02-17T02:28:00+09:00,2.2,��쐼,6.5,��,7.7,56.5,0,0,0,9.5,0,0,994.5,1008.6
2020-02-17T02:29:00+09:00,2.1,��쐼,6.5,��,7.8,56.6,0,0,0,9.5,0,0,994.6,1008.7
2020-02-17T02:30:00+09:00,2,��쐼,6.5,��,7.9,56.4,0,0,0,9.5,0,0,994.5,1008.6
2020-02-17T02:31:00+09:00,2.1,��쐼,6.5,��,7.8,55.7,0,0,0,9.5,0,0,994.5,1008.6
2020-02-17T02:32:00+09:00,2.1,��쐼,6.5,��,7.8,56,0,0,0,9.5,0,0,994.5,1008.6
2020-02-17T02:33:00+09:00,2.1,�쐼,6.5,��,7.7,56.7,0,0,0,9.5,0,0,994.5,1008.6
2020-02-17T02:34:00+09:00,2.3,�쐼,6.5,��,7.6,57.5,0,0,0,9.5,0,0,994.5,1008.6
2020-02-17T02:35:00+09:00,2.2,�쐼,6.5,��,7.7,57.3,0,0,0,9.5,0,0,994.5,1008.6
2020-02-17T02:36:00+09:00,1.9,�쐼,4.7,��,7.8,56.3,0,0,0,9.5,0,0,994.5,1008.6
2020-02-17T02:37:00+09:00,1.9,�쐼,3.9,��쐼,7.7,56.8,0,0,0,9.5,0,0,994.5,1008.6
2020-02-17T02:38:00+09:00,1.9,�쐼,3.9,��쐼,7.7,56.1,0,0,0,9.5,0,0,994.5,1008.6
2020-02-17T02:39:00+09:00,1.9,�쐼,3.9,��쐼,7.8,56.5,0,0,0,9.5,0,0,994.5,1008.6
2020-02-17T02:40:00+09:00,1.9,�쐼,3.9,��쐼,7.8,56.3,0,0,0,9.5,0,0,994.5,1008.6
2020-02-17T02:41:00+09:00,1.9,�쐼,3.9,��쐼,7.8,55.3,0,0,0,9.5,0,0,994.5,1008.6
2020-02-17T02:42:00+09:00,1.9,�쐼,3.9,��쐼,7.8,55.7,0,0,0,9.5,0,0,994.4,1008.5
2020-02-17T02:43:00+09:00,1.8,�쐼,3.9,��쐼,7.6,56.3,0,0,0,9.5,0,0,994.4,1008.5
2020-02-17T02:44:00+09:00,1.8,�쐼,3.9,��쐼,7.6,56.7,0,0,0,9.5,0,0,994.4,1008.5
2020-02-17T02:45:00+09:00,1.7,�쐼,3.9,��쐼,7.5,57.6,0,0,0,9.5,0,0,994.4,1008.5
2020-02-17T02:46:00+09:00,1.7,���쐼,3.9,��쐼,7.5,58.5,0,0,0,9.5,0,0,994.5,1008.6
2020-02-17T02:47:00+09:00,1.5,���쐼,3.6,��,7.6,58.1,0,0,0,9.5,0,0,994.5,1008.6
2020-02-17T02:48:00+09:00,1.4,���쐼,3.6,��,7.6,57.4,0,0,0,9.5,0,0,994.4,1008.5
2020-02-17T02:49:00+09:00,1.4,���쐼,3.6,��,7.5,57,0,0,0,9.5,0,0,994.4,1008.5
2020-02-17T02:50:00+09:00,1.4,���쐼,3.6,��,7.6,57.2,0,0,0,9.5,0,0,994.4,1008.5
2020-02-17T02:51:00+09:00,1.3,���쐼,3,���쐼,7.7,56.8,0,0,0,9.5,0,0,994.4,1008.5
2020-02-17T02:52:00+09:00,1.2,���쐼,2.4,���쐼,7.6,57.6,0,0,0,9.5,0,0,994.4,1008.5
2020-02-17T02:53:00+09:00,1.2,���쐼,2.4,���쐼,7.5,58.1,0,0,0,9.5,0,0,994.4,1008.5
2020-02-17T02:54:00+09:00,1.2,���쐼,2.4,���쐼,7.5,58.8,0,0,0,9.5,0,0,994.4,1008.5
2020-02-17T02:55:00+09:00,1.2,���쐼,2.4,���쐼,7.6,57.8,0,0,0,9.5,0,0,994.4,1008.5
2020-02-17T02:56:00+09:00,1.1,���쐼,2.4,���쐼,7.5,58.2,0,0,0,9.5,0,0,994.5,1008.6
2020-02-17T02:57:00+09:00,1,���쐼,2.4,���쐼,7.3,58.9,0,0,0,9.5,0,0,994.5,1008.6
2020-02-17T02:58:00+09:00,1,��,2.4,���쐼,7.4,58.3,0,0,0,9.5,0,0,994.5,1008.6
2020-02-17T02:59:00+09:00,1,��,2.4,���쐼,7.5,58.8,0,0,0,9.5,0,0,994.5,1008.6
2020-02-17T03:00:00+09:00,1,��,1.8,���k��,7.6,59.3,0,0,0,9.5,0,0,994.6,1008.7
2020-02-17T03:01:00+09:00,0.9,��,1.8,���k��,7.6,59.9,0,0,0,9.5,0,0,994.6,1008.7
2020-02-17T03:02:00+09:00,0.9,��,1.8,���k��,7.5,60.3,0,0,0,9.5,0,0,994.7,1008.8
2020-02-17T03:03:00+09:00,0.9,��,1.8,���k��,7.3,59.4,0,0,0,9.5,0,0,994.7,1008.8
2020-02-17T03:04:00+09:00,0.9,��,2.1,��,7.4,58.9,0,0,0,9.5,0,0,994.7,1008.8
2020-02-17T03:05:00+09:00,1,��,2.3,���쐼,7.4,56.8,0,0,0,9.5,0,0,994.7,1008.8
2020-02-17T03:06:00+09:00,1.1,��,2.3,���쐼,7.4,56.6,0,0,0,9.5,0,0,994.8,1008.9
2020-02-17T03:07:00+09:00,1.1,��,2.3,���쐼,7.4,57.4,0,0,0,9.5,0,0,994.8,1008.9
2020-02-17T03:08:00+09:00,1.1,���쐼,2.3,���쐼,7.5,56.9,0,0,0,9.5,0,0,994.8,1008.9
2020-02-17T03:09:00+09:00,1.1,���쐼,2.3,���쐼,7.5,56.4,0,0,0,9.5,0,0,994.8,1008.9
2020-02-17T03:10:00+09:00,1.1,�쐼,2.3,���쐼,7.4,57.3,0,0,0,9.5,0,0,994.9,1009
2020-02-17T03:11:00+09:00,1,�쐼,2.3,���쐼,7,62.7,0,0,0,9.5,0,0,994.9,1009
2020-02-17T03:12:00+09:00,1,��쐼,2.3,���쐼,6.7,66.7,0,0,0,9.5,0,0,994.9,1009.1
2020-02-17T03:13:00+09:00,1,��,2.3,���쐼,6.5,69.4,0,0,0,9.5,0,0,994.9,1009.1
2020-02-17T03:14:00+09:00,1,��쓌,2.3,���쐼,6.6,71.4,0,0,0,9.5,0,0,994.9,1009.1
2020-02-17T03:15:00+09:00,0.9,�쓌,2.1,��쓌,6.4,72.4,0,0,0,9.5,0,0,994.8,1009
2020-02-17T03:16:00+09:00,0.9,���쓌,2.7,���k��,6.4,73.3,0,0,0,9.5,0,0,994.7,1008.9
2020-02-17T03:17:00+09:00,0.9,���쓌,2.7,���k��,6.4,74.3,0,0,0,9.5,0,0,994.7,1008.9
2020-02-17T03:18:00+09:00,0.9,��,2.7,���k��,6.4,74.4,0,0,0,9.5,0,0,994.7,1008.9
2020-02-17T03:19:00+09:00,0.9,��,2.7,���k��,6.3,74.5,0,0,0,9.5,0,0,994.8,1009
2020-02-17T03:20:00+09:00,0.9,��,2.7,���k��,6.2,74.9,0,0,0,9.5,0,0,994.8,1009
2020-02-17T03:21:00+09:00,0.9,��,2.7,���k��,6.4,76,0,0,0,9.5,0,0,994.8,1009
2020-02-17T03:22:00+09:00,1,��,2.9,�k�k��,6.5,76.9,0,0,0,9.5,0,0,994.8,1009
2020-02-17T03:23:00+09:00,1.2,���k��,4.5,�k�k��,6.4,76.5,0,0,0,9.5,0,0,994.9,1009.1
2020-02-17T03:24:00+09:00,1.3,���k��,4.5,�k�k��,6.3,76.6,0,0,0,9.5,0,0,994.9,1009.1
2020-02-17T03:25:00+09:00,1.4,���k��,4.5,�k�k��,6.4,77.4,0,0,0,9.5,0,0,994.9,1009.1
2020-02-17T03:26:00+09:00,1.5,�k��,4.5,�k�k��,6.3,77.1,0,0,0,9.5,0,0,994.8,1009
2020-02-17T03:27:00+09:00,1.5,�k��,4.5,�k�k��,6.2,76.9,0,0,0,9.5,0,0,994.8,1009
2020-02-17T03:28:00+09:00,1.7,�k��,4.5,�k�k��,6,77.1,0,0,0,9.5,0,0,994.8,1009
2020-02-17T03:29:00+09:00,1.9,�k��,5.2,�k�k��,5.9,77,0,0,0,9.5,0,0,994.8,1009
2020-02-17T03:30:00+09:00,2.2,�k��,6.2,�k�k��,6,77.8,0,0,0,9.5,0,0,994.8,1009
2020-02-17T03:31:00+09:00,2.5,�k��,6.2,�k�k��,6.1,78.4,0,0,0,9.5,0,0,994.8,1009
2020-02-17T03:32:00+09:00,2.8,�k��,6.2,�k�k��,6.2,78.2,0,0,0,9.5,0,0,994.9,1009.1
2020-02-17T03:33:00+09:00,2.7,�k��,6.2,�k�k��,6.1,77.6,0,0,0,9.5,0,0,994.9,1009.1
2020-02-17T03:34:00+09:00,2.6,�k��,6.2,�k�k��,6,77.3,0,0,0,9.5,0,0,994.9,1009.1
2020-02-17T03:35:00+09:00,2.5,�k��,6.2,�k�k��,6,77.3,0,0,0,9.5,0,0,994.9,1009.1
2020-02-17T03:36:00+09:00,2.4,�k��,6.2,�k�k��,6.1,77.8,0,0,0,9.5,0,0,995,1009.2
2020-02-17T03:37:00+09:00,2.4,�k��,6.2,�k�k��,6,78.1,0,0,0,9.5,0,0,995.1,1009.3
2020-02-17T03:38:00+09:00,2.3,�k��,6.2,�k�k��,6,78,0,0,0,9.5,0,0,995,1009.2
2020-02-17T03:39:00+09:00,2.2,�k��,6.2,�k�k��,6,78.4,0,0,0,9.5,0,0,995.1,1009.3
2020-02-17T03:40:00+09:00,1.9,�k��,5.3,�k��,5.9,78.1,0,0,0,9.5,0,0,995,1009.2
2020-02-17T03:41:00+09:00,1.6,�k��,4.7,�k��,6.1,78.6,0,0,0,9.5,0,0,995,1009.2
2020-02-17T03:42:00+09:00,1.5,�k��,4,�k��,5.9,78.5,0,0,0,9.5,0,0,995,1009.2
2020-02-17T03:43:00+09:00,1.5,�k��,3.9,�k�k��,5.9,78.3,0,0,0,9.5,0,0,995,1009.2
2020-02-17T03:44:00+09:00,1.5,�k�k��,3.9,�k�k��,5.8,78.4,0,0,0,9.5,0,0,995.1,1009.3
2020-02-17T03:45:00+09:00,1.7,�k�k��,4.4,�k,5.8,78.1,0,0,0,9.5,0,0,995.1,1009.3
2020-02-17T03:46:00+09:00,2,�k�k��,5.4,�k�k��,6,78.9,0,0,0,9.5,0,0,995.1,1009.3
2020-02-17T03:47:00+09:00,2.2,�k�k��,5.4,�k�k��,6,78.8,0,0,0,9.5,0,0,995.1,1009.3
2020-02-17T03:48:00+09:00,2.3,�k�k��,5.4,�k�k��,6,78.1,0,0,0,9.5,0,0,995.1,1009.3
2020-02-17T03:49:00+09:00,2.3,�k�k��,5.4,�k�k��,5.9,78,0,0,0,9.5,0,0,995,1009.2
2020-02-17T03:50:00+09:00,2.4,�k�k��,5.4,�k�k��,5.9,78,0,0,0,9.5,0,0,995,1009.2
2020-02-17T03:51:00+09:00,2.4,�k�k��,5.4,�k�k��,5.9,78.3,0,0,0,9.5,0,0,994.9,1009.1
2020-02-17T03:52:00+09:00,2.5,�k�k��,5.4,�k�k��,5.8,78.2,0,0,0,9.5,0,0,994.9,1009.1
2020-02-17T03:53:00+09:00,2.5,�k�k��,5.4,�k�k��,5.8,78.3,0,0,0,9.5,0,0,994.9,1009.1
2020-02-17T03:54:00+09:00,2.6,�k�k��,5.4,�k�k��,6,79.1,0,0,0,9.5,0,0,994.9,1009.1
2020-02-17T03:55:00+09:00,2.6,�k��,5.4,�k�k��,5.9,78.7,0,0,0,9.5,0,0,995,1009.2
2020-02-17T03:56:00+09:00,2.5,�k��,4.4,�k��,6,78.6,0,0,0,9.5,0,0,994.9,1009.1
2020-02-17T03:57:00+09:00,2.4,�k��,4.4,�k��,6,78.6,0,0,0,9.5,0,0,994.9,1009.1
2020-02-17T03:58:00+09:00,2.5,�k��,4.6,�k��,6.1,78.9,0,0,0,9.5,0,0,994.9,1009.1
2020-02-17T03:59:00+09:00,2.6,�k��,4.9,�k�k��,6,78.1,0,0,0,9.5,0,0,994.9,1009.1
2020-02-17T04:00:00+09:00,2.8,�k�k��,5.5,�k�k��,6,78.6,0,0,0,9.5,0,0,995,1009.2
2020-02-17T04:01:00+09:00,2.8,�k�k��,5.5,�k�k��,5.9,78,0,0,0,9.5,0,0,995.1,1009.3
2020-02-17T04:02:00+09:00,2.8,�k�k��,5.5,�k�k��,5.9,78.1,0,0,0,9.5,0,0,995,1009.2
2020-02-17T04:03:00+09:00,2.9,�k�k��,5.5,�k�k��,5.8,78.4,0,0,0,9.5,0,0,995,1009.2
2020-02-17T04:04:00+09:00,3.1,�k�k��,5.5,�k�k��,5.9,78.7,0,0,0,9.5,0,0,995.1,1009.3
2020-02-17T04:05:00+09:00,3,�k�k��,5.5,�k�k��,6.2,79.3,0,0,0,9.5,0,0,995.1,1009.3
2020-02-17T04:06:00+09:00,3,�k�k��,5.5,�k�k��,5.9,78.3,0,0,0,9.5,0,0,995,1009.2
2020-02-17T04:07:00+09:00,3,�k�k��,5.5,�k�k��,5.9,78.4,0,0,0,9.5,0,0,995,1009.2
2020-02-17T04:08:00+09:00,3,�k�k��,5.5,�k�k��,6.2,78.9,0,0,0,9.5,0,0,995,1009.2
2020-02-17T04:09:00+09:00,2.7,�k�k��,5.5,�k�k��,6,78.8,0,0,0,9.5,0,0,995,1009.2
2020-02-17T04:10:00+09:00,2.6,�k�k��,5.3,�k,5.9,77.8,0,0,0,9.5,0,0,995,1009.2
2020-02-17T04:11:00+09:00,2.4,�k�k��,5.2,�k�k��,5.7,78.1,0,0,0,9.5,0,0,995,1009.2
2020-02-17T04:12:00+09:00,2.1,�k��,5.2,�k�k��,5.6,78,0,0,0,9.5,0,0,994.9,1009.1
2020-02-17T04:13:00+09:00,1.9,�k��,5.2,�k�k��,5.5,78.6,0,0,0,9.5,0,0,994.9,1009.1
2020-02-17T04:14:00+09:00,1.6,�k��,4.1,�k��,5.4,79,0,0,0,9.5,0,0,994.9,1009.1
2020-02-17T04:15:00+09:00,1.5,���k��,4.1,�k��,5.3,79.1,0,0,0,9.5,0,0,994.9,1009.1
2020-02-17T04:16:00+09:00,1.3,��,4.1,�k��,5.3,79.4,0,0,0,9.5,0,0,994.9,1009.1
2020-02-17T04:17:00+09:00,1.1,��,4.1,�k��,5.4,80,0,0,0,9.5,0,0,995,1009.2
2020-02-17T04:18:00+09:00,0.9,���쓌,3.2,�k��,5.5,80.3,0,0,0,9.5,0,0,995,1009.2
2020-02-17T04:19:00+09:00,0.8,�쓌,3.2,�k��,5.5,80.3,0,0,0,9.5,0,0,995.1,1009.3
2020-02-17T04:20:00+09:00,0.6,�쓌,1.8,���k��,5.4,79.9,0,0,0,9.5,0,0,995.1,1009.3
2020-02-17T04:21:00+09:00,0.6,��쓌,1.8,���k��,5.4,79.5,0,0,0,9.5,0,0,995,1009.2
2020-02-17T04:22:00+09:00,0.6,��쓌,2.1,��,5.5,79,0,0,0,9.5,0,0,995.1,1009.3
2020-02-17T04:23:00+09:00,0.7,�쓌,2.7,��,5.5,78.3,0,0,0,9.5,0,0,995,1009.2
2020-02-17T04:24:00+09:00,0.7,���쓌,2.7,��,5.8,78.8,0,0,0,9.5,0,0,995,1009.2
2020-02-17T04:25:00+09:00,0.7,��,2.7,��,5.8,78.6,0,0,0,9.5,0,0,995.1,1009.3
2020-02-17T04:26:00+09:00,0.8,��,2.7,��,5.8,77.9,0,0,0,9.5,0,0,995.1,1009.3
2020-02-17T04:27:00+09:00,0.8,���k��,2.7,��,6,78.3,0,0,0,9.5,0,0,995.1,1009.3
2020-02-17T04:28:00+09:00,0.9,���k��,2.7,��,5.9,78.3,0,0,0,9.5,0,0,995.1,1009.3
2020-02-17T04:29:00+09:00,1,�k��,2.7,��,5.8,77.5,0,0,0,9.5,0,0,995.2,1009.4
2020-02-17T04:30:00+09:00,1,�k��,2.7,��,5.8,77.8,0,0,0,9.5,0,0,995.1,1009.3
2020-02-17T04:31:00+09:00,1.1,�k��,2.7,��,5.7,78.1,0,0,0,9.5,0,0,995.1,1009.3
2020-02-17T04:32:00+09:00,1.1,�k��,2.7,��,5.7,78.1,0,0,0,9.5,0,0,995.1,1009.3
2020-02-17T04:33:00+09:00,1,�k��,2.5,�k��,5.9,78.7,0,0,0,9.5,0,0,995.2,1009.4
2020-02-17T04:34:00+09:00,1,�k��,2.3,�k��,5.7,78.2,0,0,0,9.5,0,0,995.2,1009.4
2020-02-17T04:35:00+09:00,1,�k��,2.3,�k��,5.9,78.1,0,0,0,9.5,0,0,995.2,1009.4
2020-02-17T04:36:00+09:00,0.9,�k��,1.9,���k��,5.9,78.3,0,0,0,9.5,0,0,995.2,1009.4
2020-02-17T04:37:00+09:00,0.9,�k��,2.3,�k��,6,78.1,0,0,0,9.5,0,0,995.2,1009.4
2020-02-17T04:38:00+09:00,1,�k��,2.3,�k��,6,76.7,0,0,0,9.5,0,0,995.2,1009.4
2020-02-17T04:39:00+09:00,0.9,�k��,2.3,�k��,5.8,75.9,0,0,0,9.5,0,0,995.2,1009.4
2020-02-17T04:40:00+09:00,0.9,���k��,2.3,�k��,5.6,75.1,0,0,0,9.5,0,0,995.3,1009.5
2020-02-17T04:41:00+09:00,0.9,���k��,2.3,�k��,5.6,75.5,0,0,0,9.5,0,0,995.3,1009.5
2020-02-17T04:42:00+09:00,0.9,���k��,2.3,�k��,5.5,75.7,0,0,0,9.5,0,0,995.2,1009.4
2020-02-17T04:43:00+09:00,0.9,���k��,2.3,�k��,5.5,76.5,0,0,0,9.5,0,0,995.2,1009.4
2020-02-17T04:44:00+09:00,1,���k��,2.8,�k�k��,5.7,77.6,0,0,0,9.5,0,0,995.2,1009.4
2020-02-17T04:45:00+09:00,1.2,���k��,4.7,�k��,5.9,78.4,0,0,0,9.5,0,0,995.2,1009.4
2020-02-17T04:46:00+09:00,1.3,���k��,4.7,�k��,5.9,77.4,0,0,0,9.5,0,0,995.2,1009.4
2020-02-17T04:47:00+09:00,1.3,���k��,4.7,�k��,5.9,76.7,0,0,0,9.5,0,0,995.2,1009.4
2020-02-17T04:48:00+09:00,1.4,�k��,4.7,�k��,6.1,76.2,0,0,0,9.5,0,0,995.3,1009.5
2020-02-17T04:49:00+09:00,1.5,�k��,4.7,�k��,6.2,75.7,0,0,0,9.5,0,0,995.3,1009.5
2020-02-17T04:50:00+09:00,1.7,�k��,4.7,�k��,6,74.8,0,0,0,9.5,0,0,995.4,1009.6
2020-02-17T04:51:00+09:00,1.9,�k�k��,4.7,�k��,6,74.5,0,0,0,9.5,0,0,995.4,1009.6
2020-02-17T04:52:00+09:00,2.2,�k�k��,5.1,�k�k��,6.2,74.8,0,0,0,9.5,0,0,995.4,1009.6
2020-02-17T04:53:00+09:00,2.5,�k�k��,5.1,�k�k��,6.2,74,0,0,0,9.5,0,0,995.3,1009.5
2020-02-17T04:54:00+09:00,2.7,�k�k��,5.1,�k�k��,6.3,73.5,0,0,0,9.5,0,0,995.3,1009.5
2020-02-17T04:55:00+09:00,2.8,�k�k��,5.1,�k�k��,6.3,73.7,0,0,0,9.5,0,0,995.2,1009.4
2020-02-17T04:56:00+09:00,3,�k�k��,5.6,�k�k��,6.2,73.9,0,0,0,9.5,0,0,995.2,1009.4
2020-02-17T04:57:00+09:00,3.3,�k�k��,5.6,�k�k��,6.3,74,0,0,0,9.5,0,0,995.2,1009.4
2020-02-17T04:58:00+09:00,3.4,�k�k��,5.6,�k�k��,6.1,73.2,0,0,0,9.5,0,0,995.2,1009.4
2020-02-17T04:59:00+09:00,3.7,�k��,5.6,�k�k��,6,73.6,0,0,0,9.5,0,0,995.2,1009.4
2020-02-17T05:00:00+09:00,3.8,�k��,5.6,�k�k��,6.1,73.8,0,0,0,9.5,0,0,995.3,1009.5
2020-02-17T05:01:00+09:00,3.7,�k��,5.6,�k�k��,6,74,0,0,0,9.5,0,0,995.3,1009.5
2020-02-17T05:02:00+09:00,3.6,�k��,5.6,�k�k��,5.9,73.5,0,0,0,9.5,0,0,995.3,1009.5
2020-02-17T05:03:00+09:00,3.6,�k��,5.6,�k�k��,6,74.7,0,0,0,9.5,0,0,995.4,1009.6